| time (UTC) | temp F | wind direction | speed MPH | gust MPH | rain 1hr in | rain 24hr in | rain mn in | humidity % | barometer mb |
| 20260505183528 | 53 | 336 | 5.0 | 14.0 | 0.00 | 0.13 | 0.13 | 83 | 1008.6 |
| 20260505183036 | 53 | 358 | 7.0 | 16.0 | 0.00 | 0.13 | 0.13 | 82 | 1008.6 |
| 20260505182527 | 54 | 48 | 8.0 | 17.0 | 0.00 | 0.13 | 0.13 | 82 | 1008.3 |
| 20260505182027 | 54 | 37 | 6.0 | 17.0 | 0.00 | 0.13 | 0.13 | 82 | 1008.2 |
| 20260505181542 | 54 | 134 | 7.0 | 15.0 | 0.00 | 0.13 | 0.13 | 82 | 1008.2 |
| 20260505181027 | 55 | 32 | 7.0 | 19.0 | 0.00 | 0.13 | 0.13 | 81 | 1008.1 |
| 20260505180527 | 55 | 11 | 4.0 | 19.0 | 0.00 | 0.13 | 0.13 | 82 | 1007.9 |
| 20260505180051 | 55 | 29 | 6.0 | 19.0 | 0.00 | 0.13 | 0.13 | 81 | 1008.0 |
| 20260505175524 | 55 | 51 | 6.0 | 15.0 | 0.00 | 0.13 | 0.13 | 82 | 1007.8 |
| 20260505175031 | 55 | 40 | 8.0 | 15.0 | 0.00 | 0.13 | 0.13 | 82 | 1007.9 |
| 20260505174548 | 56 | 35 | 5.0 | 14.0 | 0.00 | 0.13 | 0.13 | 82 | 1008.0 |
| 20260505174026 | 55 | 21 | 5.0 | 14.0 | 0.00 | 0.13 | 0.13 | 82 | 1008.0 |
| 20260505173527 | 55 | 22 | 5.0 | 14.0 | 0.00 | 0.13 | 0.13 | 83 | 1008.1 |
| 20260505173036 | 55 | 34 | 4.0 | 13.0 | 0.00 | 0.13 | 0.13 | 82 | 1008.1 |
| 20260505172527 | 55 | 23 | 4.0 | 13.0 | 0.00 | 0.13 | 0.13 | 83 | 1008.1 |
| 20260505172026 | 55 | 60 | 6.0 | 14.0 | 0.00 | 0.13 | 0.13 | 83 | 1008.1 |
| 20260505171536 | 55 | 32 | 4.0 | 14.0 | 0.00 | 0.13 | 0.13 | 83 | 1008.1 |
| 20260505171027 | 55 | 34 | 8.0 | 14.0 | 0.00 | 0.13 | 0.13 | 82 | 1008.2 |
| 20260505170526 | 55 | 22 | 4.0 | 17.0 | 0.00 | 0.13 | 0.13 | 83 | 1008.1 |
| 20260505170036 | 55 | 84 | 6.0 | 17.0 | 0.00 | 0.13 | 0.13 | 83 | 1008.1 |
| 20260505165528 | 55 | 348 | 8.0 | 17.0 | 0.00 | 0.13 | 0.13 | 82 | 1007.9 |
| 20260505165029 | 55 | 26 | 6.0 | 17.0 | 0.00 | 0.13 | 0.13 | 83 | 1007.9 |
| 20260505164534 | 56 | 23 | 6.0 | 17.0 | 0.00 | 0.13 | 0.13 | 82 | 1008.0 |
| 20260505164026 | 56 | 18 | 8.0 | 17.0 | 0.00 | 0.13 | 0.13 | 81 | 1008.0 |
| 20260505163528 | 56 | 77 | 4.0 | 15.0 | 0.00 | 0.13 | 0.13 | 81 | 1007.9 |
| 20260505163040 | 56 | 56 | 6.0 | 15.0 | 0.00 | 0.13 | 0.13 | 80 | 1007.9 |
| 20260505162528 | 57 | 37 | 8.0 | 22.0 | 0.00 | 0.13 | 0.13 | 80 | 1008.0 |
| 20260505162026 | 57 | 43 | 6.0 | 22.0 | 0.00 | 0.13 | 0.13 | 80 | 1007.8 |
| 20260505161536 | 57 | 14 | 7.0 | 14.0 | 0.00 | 0.13 | 0.13 | 80 | 1008.0 |
| 20260505161027 | 58 | 7 | 3.0 | 11.0 | 0.00 | 0.13 | 0.13 | 82 | 1008.1 |
| 20260505160526 | 58 | 49 | 4.0 | 12.0 | 0.00 | 0.13 | 0.13 | 82 | 1008.2 |
| 20260505153046 | 60 | 41 | 3.0 | 10.0 | 0.00 | 0.13 | 0.13 | 81 | 1007.2 |
| 20260505152524 | 60 | 6 | 4.0 | 10.0 | 0.00 | 0.13 | 0.13 | 81 | 1007.1 |
| 20260505152026 | 60 | 13 | 3.0 | 11.0 | 0.00 | 0.13 | 0.13 | 80 | 1007.1 |
| 20260505151545 | 59 | 64 | 6.0 | 11.0 | 0.00 | 0.13 | 0.13 | 81 | 1007.0 |
| 20260505151027 | 59 | 26 | 5.0 | 11.0 | 0.00 | 0.13 | 0.13 | 81 | 1007.0 |
| 20260505150526 | 59 | 7 | 6.0 | 11.0 | 0.00 | 0.13 | 0.13 | 81 | 1006.9 |
| 20260505140526 | 58 | 356 | 3.0 | 6.0 | 0.00 | 0.13 | 0.13 | 84 | 1007.4 |
| 20260505125026 | 58 | 359 | 2.0 | 7.0 | 0.00 | 0.13 | 0.13 | 88 | 1006.8 |
| 20260505124542 | 58 | 27 | 4.0 | 10.0 | 0.00 | 0.13 | 0.13 | 88 | 1006.7 |
| 20260505124024 | 58 | 37 | 3.0 | 10.0 | 0.00 | 0.13 | 0.13 | 87 | 1006.8 |
| 20260505123524 | 58 | 42 | 3.0 | 8.0 | 0.00 | 0.13 | 0.13 | 87 | 1006.8 |
| 20260505123054 | 58 | 36 | 2.0 | 8.0 | 0.00 | 0.13 | 0.13 | 87 | 1006.7 |
| 20260505122527 | 58 | 70 | 3.0 | 7.0 | 0.00 | 0.13 | 0.13 | 88 | 1006.6 |
| 20260505122028 | 58 | 32 | 0.0 | 6.0 | 0.00 | 0.13 | 0.13 | 90 | 1006.4 |
| 20260505121535 | 58 | 0 | 1.0 | 8.0 | 0.00 | 0.13 | 0.13 | 90 | 1006.2 |
| 20260505121028 | 58 | 0 | 1.0 | 8.0 | 0.00 | 0.13 | 0.13 | 90 | 1006.2 |
| 20260505120529 | 58 | 15 | 4.0 | 8.0 | 0.00 | 0.13 | 0.13 | 90 | 1006.5 |
| 20260505120034 | 58 | 51 | 0.0 | 4.0 | 0.00 | 0.13 | 0.13 | 90 | 1006.5 |
| 20260505115524 | 59 | 37 | 0.0 | 9.0 | 0.00 | 0.13 | 0.13 | 90 | 1006.2 |
| 20260505115024 | 59 | 0 | 2.0 | 9.0 | 0.00 | 0.13 | 0.13 | 90 | 1006.2 |
| 20260505114545 | 59 | 63 | 2.0 | 6.0 | 0.00 | 0.13 | 0.13 | 90 | 1006.2 |
| 20260505114027 | 59 | 46 | 1.0 | 12.0 | 0.00 | 0.13 | 0.13 | 90 | 1006.4 |
| 20260505113527 | 59 | 48 | 1.0 | 12.0 | 0.00 | 0.13 | 0.13 | 91 | 1006.3 |
| 20260505113042 | 59 | 23 | 1.0 | 6.0 | 0.00 | 0.13 | 0.13 | 92 | 1005.9 |
| 20260505112526 | 59 | 39 | 2.0 | 6.0 | 0.00 | 0.13 | 0.13 | 92 | 1005.9 |
| 20260505112028 | 59 | 323 | 2.0 | 6.0 | 0.00 | 0.13 | 0.13 | 93 | 1005.4 |
| 20260505111553 | 59 | 77 | 1.0 | 6.0 | 0.01 | 0.13 | 0.13 | 93 | 1005.3 |
| 20260505111027 | 59 | 60 | 1.0 | 3.0 | 0.01 | 0.13 | 0.13 | 93 | 1005.7 |
| 20260505110528 | 59 | 0 | 0.0 | 2.0 | 0.01 | 0.13 | 0.13 | 93 | 1006.6 |
| 20260505102026 | 59 | 294 | 3.0 | 8.0 | 0.01 | 0.13 | 0.13 | 93 | 1006.1 |
| 20260505101544 | 59 | 333 | 3.0 | 8.0 | 0.00 | 0.12 | 0.12 | 93 | 1005.6 |
| 20260505101027 | 59 | 30 | 0.0 | 2.0 | 0.00 | 0.12 | 0.12 | 92 | 1005.2 |
| 20260505100529 | 59 | 0 | 0.0 | 2.0 | 0.00 | 0.12 | 0.12 | 91 | 1005.1 |
| 20260505100038 | 59 | 207 | 1.0 | 1.0 | 0.01 | 0.12 | 0.12 | 91 | 1005.1 |
| 20260505095532 | 59 | 0 | 0.0 | 1.0 | 0.01 | 0.12 | 0.12 | 90 | 1004.8 |
| 20260505095027 | 60 | 0 | 0.0 | 1.0 | 0.02 | 0.12 | 0.12 | 90 | 1004.9 |
| 20260505094539 | 60 | 0 | 0.0 | 1.0 | 0.02 | 0.12 | 0.12 | 89 | 1005.0 |
| 20260505094029 | 61 | 0 | 0.0 | 4.0 | 0.03 | 0.12 | 0.12 | 87 | 1004.7 |
| 20260505093527 | 61 | 0 | 0.0 | 8.0 | 0.04 | 0.12 | 0.12 | 86 | 1004.7 |
| 20260505093038 | 61 | 0 | 2.0 | 11.0 | 0.06 | 0.12 | 0.12 | 86 | 1004.2 |
| 20260505092528 | 61 | 214 | 5.0 | 13.0 | 0.07 | 0.12 | 0.12 | 86 | 1004.2 |
| 20260505092028 | 60 | 195 | 8.0 | 15.0 | 0.08 | 0.12 | 0.12 | 87 | 1004.0 |
| 20260505091536 | 60 | 192 | 8.0 | 16.0 | 0.09 | 0.12 | 0.12 | 88 | 1003.4 |
| 20260505091027 | 60 | 163 | 6.0 | 16.0 | 0.09 | 0.12 | 0.12 | 89 | 1003.2 |
| 20260505090527 | 60 | 184 | 9.0 | 15.0 | 0.10 | 0.12 | 0.12 | 89 | 1003.4 |
| 20260505090050 | 60 | 169 | 7.0 | 14.0 | 0.09 | 0.11 | 0.11 | 90 | 1004.2 |
| 20260505085528 | 60 | 124 | 1.0 | 4.0 | 0.09 | 0.10 | 0.10 | 91 | 1004.8 |
| 20260505085027 | 61 | 95 | 1.0 | 2.0 | 0.10 | 0.10 | 0.10 | 90 | 1005.1 |
| 20260505084538 | 61 | 106 | 0.0 | 4.0 | 0.10 | 0.10 | 0.10 | 90 | 1005.6 |
| 20260505084026 | 61 | 0 | 1.0 | 10.0 | 0.09 | 0.09 | 0.09 | 88 | 1006.0 |
| 20260505083528 | 62 | 293 | 4.0 | 14.0 | 0.07 | 0.07 | 0.07 | 88 | 1006.1 |
| 20260505083045 | 62 | 244 | 6.0 | 14.0 | 0.06 | 0.06 | 0.06 | 87 | 1006.0 |
| 20260505082527 | 62 | 265 | 3.0 | 11.0 | 0.05 | 0.05 | 0.05 | 87 | 1005.9 |
| 20260505082028 | 62 | 293 | 2.0 | 9.0 | 0.04 | 0.04 | 0.04 | 87 | 1005.9 |
| 20260505081545 | 62 | 316 | 4.0 | 17.0 | 0.03 | 0.03 | 0.03 | 87 | 1005.8 |
| 20260505081027 | 63 | 295 | 7.0 | 18.0 | 0.03 | 0.03 | 0.03 | 85 | 1005.4 |
| 20260505080527 | 63 | 248 | 10.0 | 18.0 | 0.02 | 0.02 | 0.02 | 84 | 1005.1 |
| 20260505080042 | 63 | 212 | 8.0 | 14.0 | 0.02 | 0.02 | 0.02 | 84 | 1005.0 |
| 20260505075528 | 63 | 275 | 6.0 | 21.0 | 0.01 | 0.01 | 0.01 | 82 | 1005.2 |
| 20260505075027 | 64 | 298 | 8.0 | 21.0 | 0.00 | 0.00 | 0.00 | 80 | 1005.4 |
| 20260505074544 | 64 | 279 | 7.0 | 18.0 | 0.00 | 0.00 | 0.00 | 79 | 1005.4 |
| 20260505074027 | 65 | 266 | 9.0 | 18.0 | 0.00 | 0.00 | 0.00 | 77 | 1005.3 |
| 20260505073528 | 65 | 217 | 7.0 | 18.0 | 0.00 | 0.00 | 0.00 | 76 | 1005.2 |
| 20260505073040 | 65 | 178 | 8.0 | 18.0 | 0.00 | 0.00 | 0.00 | 75 | 1005.4 |
| 20260505072530 | 65 | 225 | 9.0 | 18.0 | 0.00 | 0.00 | 0.00 | 74 | 1005.3 |
| 20260505072027 | 65 | 180 | 5.0 | 10.0 | 0.00 | 0.00 | 0.00 | 75 | 1005.2 |
| 20260505071539 | 65 | 200 | 6.0 | 9.0 | 0.00 | 0.00 | 0.00 | 75 | 1005.5 |
| 20260505071029 | 64 | 207 | 4.0 | 9.0 | 0.00 | 0.00 | 0.00 | 75 | 1005.4 |
| 20260505070530 | 65 | 229 | 2.0 | 9.0 | 0.00 | 0.00 | 0.00 | 75 | 1005.3 |
| 20260505070045 | 65 | 221 | 5.0 | 10.0 | 0.00 | 0.00 | 0.00 | 74 | 1005.1 |
| 20260505065530 | 65 | 170 | 5.0 | 10.0 | 0.00 | 0.00 | 0.00 | 74 | 1005.2 |
| 20260505065027 | 64 | 202 | 3.0 | 8.0 | 0.00 | 0.00 | 0.00 | 74 | 1005.0 |
| 20260505064552 | 64 | 171 | 4.0 | 7.0 | 0.00 | 0.00 | 0.00 | 75 | 1005.4 |
| 20260505064028 | 64 | 153 | 2.0 | 8.0 | 0.00 | 0.00 | 0.00 | 75 | 1005.6 |
| 20260505063529 | 64 | 127 | 2.0 | 9.0 | 0.00 | 0.00 | 0.00 | 75 | 1005.7 |
| 20260505063035 | 64 | 177 | 3.0 | 9.0 | 0.00 | 0.00 | 0.00 | 75 | 1005.8 |
| 20260505062530 | 64 | 238 | 1.0 | 6.0 | 0.00 | 0.00 | 0.00 | 75 | 1005.9 |
| 20260505062030 | 64 | 208 | 1.0 | 7.0 | 0.00 | 0.00 | 0.00 | 75 | 1005.8 |
| 20260505061544 | 64 | 165 | 2.0 | 7.0 | 0.00 | 0.00 | 0.00 | 75 | 1005.9 |
| 20260505061031 | 64 | 198 | 3.0 | 7.0 | 0.00 | 0.00 | 0.00 | 75 | 1005.9 |
| 20260505060529 | 64 | 168 | 2.0 | 7.0 | 0.00 | 0.00 | 0.00 | 75 | 1006.1 |
| 20260505060038 | 64 | 238 | 2.0 | 7.0 | 0.00 | 0.00 | 0.00 | 75 | 1005.9 |
| 20260505055530 | 64 | 195 | 2.0 | 6.0 | 0.00 | 0.00 | 0.00 | 74 | 1005.9 |
| 20260505055028 | 64 | 147 | 2.0 | 7.0 | 0.00 | 0.00 | 0.00 | 74 | 1005.9 |
| 20260505054537 | 64 | 0 | 2.0 | 7.0 | 0.00 | 0.00 | 0.00 | 74 | 1006.0 |
| 20260505054027 | 64 | 153 | 2.0 | 5.0 | 0.00 | 0.00 | 0.00 | 74 | 1005.8 |
| 20260505053529 | 64 | 177 | 2.0 | 6.0 | 0.00 | 0.00 | 0.00 | 74 | 1005.9 |
| 20260505053049 | 65 | 195 | 2.0 | 6.0 | 0.00 | 0.00 | 0.00 | 74 | 1005.9 |
| 20260505052529 | 65 | 176 | 1.0 | 5.0 | 0.00 | 0.00 | 0.00 | 74 | 1005.9 |
| 20260505052029 | 65 | 122 | 2.0 | 5.0 | 0.00 | 0.00 | 0.00 | 74 | 1005.8 |
| 20260505051535 | 65 | 0 | 2.0 | 7.0 | 0.00 | 0.00 | 0.00 | 74 | 1005.9 |
| 20260505051030 | 65 | 193 | 3.0 | 8.0 | 0.00 | 0.00 | 0.00 | 73 | 1006.0 |
| 20260505050533 | 65 | 113 | 4.0 | 8.0 | 0.00 | 0.00 | 0.00 | 73 | 1006.1 |
| 20260505041536 | 66 | 0 | 0.0 | 3.0 | 0.00 | 0.00 | 0.00 | 70 | 1006.6 |
| 20260505041027 | 66 | 121 | 0.0 | 4.0 | 0.00 | 0.00 | 0.00 | 70 | 1006.6 |
| 20260505040528 | 66 | 130 | 0.0 | 4.0 | 0.00 | 0.00 | 0.00 | 70 | 1006.7 |
| 20260505040036 | 67 | 144 | 0.0 | 3.0 | 0.00 | 0.00 | 0.00 | 69 | 1006.7 |
| 20260505035527 | 67 | 0 | 0.0 | 6.0 | 0.00 | 0.00 | 0.00 | 69 | 1006.7 |
| 20260505035027 | 67 | 205 | 1.0 | 6.0 | 0.00 | 0.00 | 0.00 | 69 | 1006.8 |
| 20260505034536 | 67 | 195 | 1.0 | 5.0 | 0.00 | 0.00 | 0.00 | 68 | 1006.9 |
| 20260505034026 | 67 | 186 | 1.0 | 5.0 | 0.00 | 0.00 | 0.00 | 68 | 1007.0 |
| 20260505033531 | 68 | 168 | 3.0 | 5.0 | 0.00 | 0.00 | 0.00 | 68 | 1006.9 |
| 20260505033037 | 68 | 214 | 1.0 | 5.0 | 0.00 | 0.00 | 0.00 | 68 | 1006.9 |
| 20260505032528 | 68 | 0 | 2.0 | 6.0 | 0.00 | 0.00 | 0.00 | 67 | 1006.9 |
| 20260505032030 | 68 | 217 | 2.0 | 9.0 | 0.00 | 0.00 | 0.00 | 67 | 1006.9 |
| 20260505031537 | 69 | 208 | 4.0 | 9.0 | 0.00 | 0.00 | 0.00 | 66 | 1007.0 |
| 20260505031027 | 69 | 188 | 4.0 | 10.0 | 0.00 | 0.00 | 0.00 | 65 | 1006.8 |
| 20260505030527 | 69 | 200 | 4.0 | 10.0 | 0.00 | 0.00 | 0.00 | 65 | 1007.0 |
| 20260505030035 | 69 | 211 | 6.0 | 11.0 | 0.00 | 0.00 | 0.00 | 65 | 1006.9 |
| 20260505025529 | 69 | 220 | 5.0 | 13.0 | 0.00 | 0.00 | 0.00 | 65 | 1006.8 |
| 20260505025027 | 70 | 224 | 6.0 | 13.0 | 0.00 | 0.00 | 0.00 | 64 | 1006.8 |
| 20260505024543 | 70 | 205 | 6.0 | 11.0 | 0.00 | 0.00 | 0.00 | 64 | 1006.8 |
| 20260505024027 | 70 | 205 | 6.0 | 13.0 | 0.00 | 0.00 | 0.00 | 64 | 1006.7 |
| 20260505023527 | 70 | 213 | 7.0 | 13.0 | 0.00 | 0.00 | 0.00 | 64 | 1006.7 |
| 20260505023046 | 70 | 189 | 5.0 | 12.0 | 0.00 | 0.00 | 0.00 | 64 | 1006.6 |
| 20260505022528 | 70 | 174 | 6.0 | 12.0 | 0.00 | 0.00 | 0.00 | 63 | 1006.7 |
| 20260505022028 | 70 | 218 | 8.0 | 12.0 | 0.00 | 0.00 | 0.00 | 63 | 1006.6 |
| 20260505021544 | 70 | 175 | 7.0 | 12.0 | 0.00 | 0.00 | 0.00 | 63 | 1006.4 |
| 20260505021026 | 70 | 211 | 4.0 | 9.0 | 0.00 | 0.00 | 0.00 | 64 | 1006.3 |
| 20260505020527 | 70 | 207 | 4.0 | 8.0 | 0.00 | 0.00 | 0.00 | 64 | 1006.3 |
| 20260505020035 | 70 | 195 | 3.0 | 7.0 | 0.00 | 0.00 | 0.00 | 64 | 1006.2 |
| 20260505015528 | 70 | 206 | 3.0 | 7.0 | 0.00 | 0.00 | 0.00 | 63 | 1006.1 |
| 20260505015030 | 71 | 195 | 2.0 | 4.0 | 0.00 | 0.00 | 0.00 | 63 | 1006.0 |
| 20260505014541 | 71 | 166 | 2.0 | 4.0 | 0.00 | 0.00 | 0.00 | 63 | 1005.9 |
| 20260505014024 | 71 | 195 | 2.0 | 5.0 | 0.00 | 0.00 | 0.00 | 62 | 1005.9 |
| 20260505013524 | 71 | 175 | 3.0 | 5.0 | 0.00 | 0.00 | 0.00 | 61 | 1005.7 |
| 20260505013036 | 71 | 193 | 1.0 | 7.0 | 0.00 | 0.00 | 0.00 | 61 | 1005.6 |
| 20260505012527 | 72 | 198 | 2.0 | 7.0 | 0.00 | 0.00 | 0.00 | 61 | 1005.5 |
| 20260505012025 | 72 | 203 | 2.0 | 7.0 | 0.00 | 0.00 | 0.00 | 60 | 1005.4 |
| 20260505011541 | 72 | 193 | 2.0 | 6.0 | 0.00 | 0.00 | 0.00 | 60 | 1005.5 |
| 20260505011028 | 72 | 182 | 2.0 | 7.0 | 0.00 | 0.00 | 0.00 | 59 | 1005.4 |
| 20260505010525 | 72 | 203 | 3.0 | 7.0 | 0.00 | 0.00 | 0.00 | 59 | 1005.4 |
| 20260505010042 | 73 | 197 | 3.0 | 7.0 | 0.00 | 0.00 | 0.00 | 58 | 1005.3 |
| 20260505005526 | 73 | 172 | 2.0 | 6.0 | 0.00 | 0.00 | 0.00 | 58 | 1005.3 |
| 20260505005025 | 73 | 218 | 4.0 | 8.0 | 0.00 | 0.00 | 0.00 | 57 | 1005.3 |
| 20260505004536 | 73 | 212 | 4.0 | 8.0 | 0.00 | 0.00 | 0.00 | 57 | 1005.3 |
| 20260505004025 | 73 | 213 | 2.0 | 6.0 | 0.00 | 0.00 | 0.00 | 56 | 1005.2 |
| 20260505003529 | 74 | 203 | 4.0 | 7.0 | 0.00 | 0.00 | 0.00 | 56 | 1005.2 |
| 20260505003035 | 74 | 207 | 3.0 | 8.0 | 0.00 | 0.00 | 0.00 | 55 | 1005.2 |
| 20260505002527 | 74 | 206 | 2.0 | 8.0 | 0.00 | 0.00 | 0.00 | 55 | 1005.2 |
| 20260505002024 | 75 | 212 | 4.0 | 9.0 | 0.00 | 0.00 | 0.00 | 54 | 1005.2 |
| 20260505001550 | 75 | 210 | 4.0 | 10.0 | 0.00 | 0.00 | 0.00 | 53 | 1005.2 |
| 20260505001027 | 76 | 221 | 4.0 | 13.0 | 0.00 | 0.00 | 0.00 | 52 | 1005.1 |
| 20260505000524 | 76 | 205 | 8.0 | 13.0 | 0.00 | 0.00 | 0.00 | 52 | 1005.2 |
| 20260505000049 | 76 | 181 | 7.0 | 16.0 | 0.00 | 0.00 | 0.00 | 51 | 1005.2 |
| 20260504235527 | 77 | 204 | 6.0 | 16.0 | 0.00 | 0.00 | 0.00 | 51 | 1005.2 |
| 20260504235029 | 77 | 203 | 9.0 | 16.0 | 0.00 | 0.00 | 0.00 | 50 | 1005.0 |
| 20260504234541 | 77 | 218 | 8.0 | 15.0 | 0.00 | 0.00 | 0.00 | 50 | 1005.0 |
| 20260504234028 | 78 | 211 | 10.0 | 15.0 | 0.00 | 0.00 | 0.00 | 49 | 1004.9 |
| 20260504233525 | 78 | 195 | 7.0 | 15.0 | 0.00 | 0.00 | 0.00 | 49 | 1004.9 |
| 20260504233036 | 78 | 139 | 8.0 | 17.0 | 0.00 | 0.00 | 0.00 | 49 | 1005.0 |
| 20260504232525 | 78 | 203 | 8.0 | 18.0 | 0.00 | 0.00 | 0.00 | 48 | 1004.9 |
| 20260504232024 | 78 | 234 | 8.0 | 18.0 | 0.00 | 0.00 | 0.00 | 49 | 1005.0 |
| 20260504231553 | 79 | 205 | 11.0 | 16.0 | 0.00 | 0.00 | 0.00 | 48 | 1005.2 |
| 20260504231027 | 79 | 199 | 9.0 | 19.0 | 0.00 | 0.00 | 0.00 | 48 | 1005.1 |
| 20260504230525 | 79 | 224 | 11.0 | 20.0 | 0.00 | 0.00 | 0.00 | 48 | 1005.2 |
| 20260504230035 | 79 | 224 | 11.0 | 20.0 | 0.00 | 0.00 | 0.00 | 48 | 1005.1 |
| 20260504225525 | 79 | 231 | 12.0 | 19.0 | 0.00 | 0.00 | 0.00 | 48 | 1005.1 |
| 20260504225029 | 79 | 222 | 9.0 | 21.0 | 0.00 | 0.00 | 0.00 | 49 | 1005.1 |
| 20260504224538 | 79 | 219 | 11.0 | 21.0 | 0.00 | 0.00 | 0.00 | 48 | 1005.2 |
| 20260504224032 | 79 | 207 | 13.0 | 21.0 | 0.00 | 0.00 | 0.00 | 48 | 1005.2 |
| 20260504223529 | 79 | 231 | 8.0 | 17.0 | 0.00 | 0.00 | 0.00 | 50 | 1005.2 |
| 20260504223037 | 79 | 210 | 9.0 | 18.0 | 0.00 | 0.00 | 0.00 | 47 | 1005.2 |
| 20260504222526 | 79 | 212 | 11.0 | 24.0 | 0.00 | 0.00 | 0.00 | 48 | 1005.1 |
| 20260504222025 | 79 | 255 | 13.0 | 24.0 | 0.00 | 0.00 | 0.00 | 49 | 1005.1 |
| 20260504221535 | 79 | 213 | 12.0 | 17.0 | 0.00 | 0.00 | 0.00 | 48 | 1005.2 |
| 20260504221028 | 79 | 175 | 11.0 | 23.0 | 0.00 | 0.00 | 0.00 | 46 | 1005.3 |
| 20260504220528 | 79 | 220 | 11.0 | 23.0 | 0.00 | 0.00 | 0.00 | 49 | 1005.3 |
| 20260504220037 | 79 | 211 | 13.0 | 22.0 | 0.00 | 0.00 | 0.00 | 47 | 1005.3 |
| 20260504215529 | 79 | 235 | 12.0 | 22.0 | 0.00 | 0.00 | 0.00 | 48 | 1005.2 |
| 20260504215031 | 79 | 226 | 12.0 | 22.0 | 0.00 | 0.00 | 0.00 | 47 | 1005.3 |
| 20260504214535 | 79 | 195 | 12.0 | 22.0 | 0.00 | 0.00 | 0.00 | 47 | 1005.3 |
| 20260504214028 | 79 | 188 | 8.0 | 18.0 | 0.00 | 0.00 | 0.00 | 48 | 1005.3 |
| 20260504213529 | 79 | 189 | 10.0 | 21.0 | 0.00 | 0.00 | 0.00 | 48 | 1005.5 |
| 20260504213041 | 79 | 214 | 10.0 | 21.0 | 0.00 | 0.00 | 0.00 | 49 | 1005.5 |
| 20260504212532 | 79 | 203 | 11.0 | 19.0 | 0.00 | 0.00 | 0.00 | 49 | 1005.5 |
| 20260504212028 | 79 | 230 | 9.0 | 17.0 | 0.00 | 0.00 | 0.00 | 48 | 1005.6 |
| 20260504211547 | 79 | 208 | 10.0 | 21.0 | 0.00 | 0.00 | 0.00 | 51 | 1005.6 |
| 20260504211027 | 79 | 212 | 13.0 | 25.0 | 0.00 | 0.00 | 0.00 | 49 | 1005.7 |
| 20260504210528 | 79 | 205 | 9.0 | 25.0 | 0.00 | 0.00 | 0.00 | 48 | 1005.7 |
| 20260504210054 | 79 | 145 | 11.0 | 20.0 | 0.00 | 0.00 | 0.00 | 49 | 1005.8 |
| 20260504205526 | 80 | 245 | 11.0 | 20.0 | 0.00 | 0.00 | 0.00 | 51 | 1005.8 |
| 20260504205025 | 80 | 237 | 10.0 | 19.0 | 0.00 | 0.00 | 0.00 | 49 | 1005.9 |
| 20260504204541 | 80 | 216 | 7.0 | 19.0 | 0.00 | 0.00 | 0.00 | 50 | 1005.9 |
| 20260504204027 | 79 | 176 | 9.0 | 19.0 | 0.00 | 0.00 | 0.00 | 50 | 1006.0 |
| 20260504203527 | 79 | 235 | 13.0 | 19.0 | 0.00 | 0.00 | 0.00 | 48 | 1006.0 |
| 20260504203037 | 79 | 225 | 10.0 | 20.0 | 0.00 | 0.00 | 0.00 | 49 | 1006.1 |
| 20260504202529 | 79 | 194 | 10.0 | 20.0 | 0.00 | 0.00 | 0.00 | 50 | 1006.3 |
| 20260504202029 | 79 | 219 | 13.0 | 21.0 | 0.00 | 0.00 | 0.00 | 49 | 1006.4 |
| 20260504201535 | 79 | 228 | 11.0 | 21.0 | 0.00 | 0.00 | 0.00 | 49 | 1006.4 |
| 20260504201029 | 79 | 189 | 13.0 | 24.0 | 0.00 | 0.00 | 0.00 | 49 | 1006.5 |
| 20260504200529 | 78 | 198 | 12.0 | 24.0 | 0.00 | 0.00 | 0.00 | 50 | 1006.5 |
| 20260504200040 | 79 | 217 | 11.0 | 18.0 | 0.00 | 0.00 | 0.00 | 50 | 1006.5 |
| 20260504195527 | 79 | 219 | 10.0 | 22.0 | 0.00 | 0.00 | 0.00 | 52 | 1006.6 |
| 20260504195027 | 78 | 229 | 12.0 | 22.0 | 0.00 | 0.00 | 0.00 | 52 | 1006.7 |
| 20260504194557 | 78 | 191 | 13.0 | 22.0 | 0.00 | 0.00 | 0.00 | 50 | 1006.7 |
| 20260504194028 | 78 | 224 | 15.0 | 22.0 | 0.00 | 0.00 | 0.00 | 50 | 1006.7 |
| 20260504193528 | 78 | 189 | 11.0 | 22.0 | 0.00 | 0.00 | 0.00 | 49 | 1006.6 |
| 20260504193035 | 78 | 231 | 12.0 | 20.0 | 0.00 | 0.00 | 0.00 | 53 | 1006.6 |
| 20260504192528 | 78 | 216 | 10.0 | 22.0 | 0.00 | 0.00 | 0.00 | 52 | 1006.7 |
| 20260504192029 | 78 | 198 | 10.0 | 24.0 | 0.00 | 0.00 | 0.00 | 52 | 1006.7 |
| 20260504191548 | 78 | 212 | 14.0 | 24.0 | 0.00 | 0.00 | 0.00 | 49 | 1006.7 |
| 20260504191028 | 78 | 225 | 11.0 | 24.0 | 0.00 | 0.00 | 0.00 | 51 | 1006.7 |
| 20260504190527 | 78 | 239 | 11.0 | 23.0 | 0.00 | 0.00 | 0.00 | 50 | 1006.8 |
| 20260504190043 | 78 | 213 | 14.0 | 23.0 | 0.00 | 0.00 | 0.00 | 50 | 1006.8 |
| 20260504185530 | 78 | 200 | 12.0 | 20.0 | 0.00 | 0.00 | 0.00 | 51 | 1006.8 |
| 20260504185031 | 77 | 195 | 11.0 | 22.0 | 0.00 | 0.00 | 0.00 | 54 | 1006.8 |
| 20260504184546 | 77 | 212 | 13.0 | 23.0 | 0.00 | 0.00 | 0.00 | 51 | 1006.9 |
| 20260504184028 | 78 | 211 | 15.0 | 23.0 | 0.00 | 0.00 | 0.00 | 49 | 1006.8 |